sat.trackr.live / text

‹ back to catalog

STARLINK-4091

NORAD 52830 · 2022-062A

PAYLOAD ACTIVE UNKNOWN

§ Identity

Operator
Country
US
Launch date
2022-06-17
Launch site
AFETR
Launch vehicle
Mass (kg)
RCS (m²)

Purposes: comms

External: N2YO · Heavens-Above · Gunter

§ Orbital elements

Epoch: 2026-09-19T15:16:20.353152Z

Period
94.01 min
Inclination
53.1589°
Eccentricity
0.0001292
Mean motion
15.31700049 rev/d
Perigee alt
469.9 km
Apogee alt
471.6 km
Semi-major
6,848.9 km
B*
1.9416e-5
RAAN
232.8531°
Arg perigee
91.9622°
Mean anomaly
268.1528°
Rev number
23,520

§ Raw data

STARLINK-40911 52830U 22062A   26262.63634668  .00000237  00000+0  19416-4 0  99962 52830  53.1589 232.8531 0001292  91.9622 268.1528 15.31700049235202

JSON: /api/v1/satellites/52830 · /tle

For live sub-satellite position, see the globe view (requires WebGL).

§ Visibility from observer

Set your observer location to see the next 7 days of passes ≥ 10°. The values pass through the URL so the page stays shareable.

No JS? Fill the form by hand. The geolocation button needs JavaScript.